User: anonymous   Login
Location: Oakhurst
(33.6448°N, 111.9543°W)
Time: 19:25:04
(UTC+00:00)
Language:

HuskySat-1 - Orbit

View from above orbital plane
View from above orbital plane
View from above satellite
View from above satellite

Ground track
Ground track

The orbit data is extracted from the following two-line orbital elements,

1 45117U 19071G   21204.36097337  .00003547  00000-0  10789-3 0  9990
2 45117  51.6395 221.5899 0010533  63.5635 296.6428 15.36732305 82704
Epoch (UTC): 23 July 2021 08:39:48
Eccentricity: 0.0010533
inclination: 51.6395°
perigee height: 448 km
apogee height: 463 km
right ascension of ascending node: 221.5899°
argument of perigee: 63.5635°
revolutions per day: 15.36732305
mean anomaly at epoch: 296.6428°
orbit number at epoch: 8270

The dashed part of the orbit path shows where the satellite is in the earth's shadow,  

DLR